DECAYED
Showing default

ELSA-D CLIENT, 51288 (Decayed)

Orbit data source: Space-Track

ELSA-D CLIENT, 51288 was a Japanese payload satellite in LEO that was launched on Mon, 22 Mar 2021 UTC via a SOYUZ-2-1A launch vehicle from the Tyuratam Missile And Space Complex (TTMTR). Payload-class satellites include a variety of spacecraft equipped with specific instruments for various scientific and technological missions. These include communications satellites like Starlink; space stations such as the ISS; scientific satellites like the Hubble; Earth observation satellites from companies like Planet Labs, Umbra, and HawkEye 360; GPS; miniature CubeSats for education and research; and military/defense satellites.

Not visible in the next 10 days
Identifier
51288, 2021-022AQ
Orbit
Decayed
Country
Flag of JPJP / JPN
Related business
Manufacturer
SSTL (Astrium)
Mission
Decayed Commercial Technology
Bus & Motor
SSTL-42, Unknown motor
Mass
17 kg wet, 17 kg dry
Launch date (UTC)
2021-03-22 (5 years ago)
Launch vehicle
SOYUZ-2-1A
Launch site
Tyuratam Missile And Space Complex (TTMTR)
Object type
Payload
Rocket body
Debris
Shape & HBR
Box, 1.0 m
Radar Cross Section
0.223 m², Medium (>0.1 m² and < 1m²)

Expand to show TLE details & history
Last TLE update: 4 months ago

TLE from 4 months ago
0 ELSA-D CLIENT
1 51288U 21022AQ  26054.51419973  .11911708  26705-5  37714-3 0  9995
2 51288  97.3980 338.8004 0007917 222.7798 137.2888 16.44364928227318
Epoch: 2026-02-23T12:20Z
TLE epoch observation values (Epoch: 2026-02-23T12:20:26.856Z)
Latitude
-0.00007°
Longitude
0.28152°
Altitude
161.277 km
Speed
7.807 km/s
True Right ascension
22h 35m 12s
True Declination
0° 00' 00"
Sunlit
Object was in daylight at epoch
Visualization orbit readout
Latitude
Unknown
Longitude
Unknown
Altitude
Unknown
Speed
Unknown
Apparent Right ascension
Unknown
Apparent Declination
Unknown
Sunlit
N/A
Visualization observer readout
Local Sidereal Time
21:47:51
Azimuth
Unknown
Elevation
Unknown
Doppler factor
Unknown
Orbital elements
Apogee altitude
156.188 km
Perigee altitude
145.85 km
Semi-major axis
6,529.156 km
Eccentricity
0.00079
Inclination
97.398°
RAAN
338.8004°
Arg. of periapsis
222.7798°
True anomaly
137.35029°
Mean anomaly
137.2888°
Eccentric anomaly
137.31955°
Mean motion
4.11394 °/min
Orbital period
87.51 mins
BSTAR
0.00037714
Loading maneuver chart data...
Computing Atmospheric mass density...

Documentation

Showing up to 5 results
|